Content
SEND FEEDBACK

Daily
Averages
Monthly
Summary
United States of America

PEABODY, MASSACHUSETTS


Home > North America > United States > Massachusetts
Elevation: 160 feet     Latitude: 42 32N     Longitude: 070 59W

WEATHER
 
SELECT A DAY
Number of Records: 188,835;   Date Range: 1/1/95 - 7/23/14
 
SHARE

PRINT THIS DATA

[ ← Previous Day ]
WEATHER ALMANAC - JANUARY 23, 2013
[ Next Day → ]
[ °C ]   °F
Weather ElementAverageHighLow
Temperature10.6 °F15.1 °F (12:53 pm)6.1 °F (9:53 pm)
Dewpoint-12.1 °F-4 °F (4:53 am)-17 °F (4:53 pm)
Humidity36.3 %53 % (4:53 am)24 % (2:53 pm)
Barometer30.09 in30.12 in (8:53 am)30.04 in (1:53 pm)
Wind Speed10.4 mph17.3 mph (1:53 pm)
Wind Gust28.8 mph (11:53 am)
Weather ElementAverage
Visibility10 mi
Wind DirectionWNW (290.9 °)

Weather ElementTotal
Precipitation---
Heating Degree Days54.4 (Base 65)
Averaged from 23 records on January 23, 2013
WEATHER CONDITIONS BREAKOUT
WIND DIRECTION BREAKOUT
WEATHER BY HOUR - JANUARY 23, 2013
[ °C ]   °F
Local TimeTemperatureDewpointHumidityBarometerVisibilityWind DirectionWind SpeedGust SpeedPrecipitationEventsConditions
1:53 AM12.0 °F-5.1 °F46 %30.05 in10.0 miWest (270°)6.9 mphClear
2:53 AM10.9 °F-6.0 °F47 %30.06 in10.0 miWest (270°)8.1 mphClear
3:53 AM10.9 °F-6.0 °F47 %30.06 in10.0 miWest (270°)9.2 mphClear
4:53 AM10.0 °F-4.0 °F53 %30.06 in10.0 miWest (260°)11.5 mphClear
5:53 AM10.0 °F-9.9 °F40 %30.08 in10.0 miWNW (290°)9.2 mphClear
6:53 AM9.0 °F-9.0 °F44 %30.09 in10.0 miWNW (290°)10.4 mphClear
7:53 AM9.0 °F-11.0 °F40 %30.10 in10.0 miWest (270°)12.7 mphClear
8:53 AM10.9 °F-13.0 °F33 %30.12 in10.0 miWest (270°)12.7 mph19.6 mphClear
9:53 AM12.0 °F-11.9 °F34 %30.12 in10.0 miWest (280°)9.2 mph18.4 mphClear
10:53 AM12.9 °F-13.0 °F31 %30.10 in10.0 miWNW (300°)16.1 mph23.0 mphClear
11:53 AM14.0 °F-11.9 °F31 %30.07 in10.0 miNW (310°)15.0 mph28.8 mphClear
12:53 PM15.1 °F-13.0 °F28 %30.05 in10.0 miNW (310°)16.1 mph26.5 mphClear
1:53 PM15.1 °F-15.0 °F25 %30.04 in10.0 miWNW (290°)17.3 mph27.6 mphClear
2:53 PM15.1 °F-16.1 °F24 %30.05 in10.0 miWNW (290°)15.0 mph26.5 mphScattered Clouds
3:53 PM14.0 °F-16.1 °F25 %30.06 in10.0 miNW (310°)11.5 mph20.7 mphScattered Clouds
4:53 PM12.0 °F-17.0 °F26 %30.08 in10.0 miWNW (300°)9.2 mph18.4 mphScattered Clouds
5:53 PM10.0 °F-16.1 °F30 %30.10 in10.0 miNNW (340°)5.8 mphScattered Clouds
6:53 PM8.1 °F-14.1 °F36 %30.11 in10.0 miNW (310°)4.6 mphClear
7:53 PM7.0 °F-14.1 °F38 %30.12 in10.0 miNW (310°)5.8 mphClear
8:53 PM7.0 °F-14.1 °F38 %30.12 in10.0 miWNW (300°)9.2 mphClear
9:53 PM6.1 °F-13.0 °F41 %30.12 in10.0 miWest (280°)5.8 mphClear
10:53 PM6.1 °F-13.0 °F41 %30.11 in10.0 miWest (280°)6.9 mphClear
11:53 PM6.1 °F-15.0 °F38 %30.11 in10.0 miWNW (290°)11.5 mphClear
Hourly data recorded from KBVY, located miles away from Peabody, Massachusetts







STORIES FROM OUR PARTNERS